Location: La Brionne
(46.1728°N, 1.7849°E)
Time: 21:09:13
(UTC+00:00)

FALCON 9 DEB - Pass Details

Date: 16 June 2021
Orbit: 358 x 375 km, 53.0° (Epoch: 01 August)

Event Time Altitude Azimuth Distance (km) Brightness Sun altitude
Exits shadow 23:29:20 21° 272° (W) 938 4.9 -20.2°
Maximum altitude 23:31:08 45° 337° (NNW) 534 4.0 -20.3°
Drops below altitude 10° 23:34:10 10° 52° (NE) 1,406 6.1 -20.3°
Sets 23:36:16 0° 59° (ENE) 2,258 7.1 -20.3°
